Погода в Арагуаине

Бразилия     7°14′36″S   48°08′17″W
темп.,
°C
ветер,
м/с
пор.,
м/с
влажн.,
%
обл.,
%
осадки,
мм/ч
давл.,
гПа
погр.,
м
26 февраля, пт
пт2600:00+23зсз12955 0.6 101036
03:00+22с119718 5.4 100834
06:00+22в2697100 4.5 1009270
09:00+22ссв2599100 18.6 1012320
12:00+23ссз2596100 13.3 1012326
15:00+23сз3594100 16.6 1009391
18:00+24сз1393100 0.1 1007243
21:00+22ссз119893 0.1 101026
27 февраля, сб
сб2700:00+22в1197100 0.0 101134
03:00+22всв1196100 0.0 100925
06:00+22всв1295100 0.2 101134
09:00+24всв248690 0.3 1013375
12:00+26всв478376 2.8 1012701
15:00+29св336545 2.9 1008968
18:00+26всв23790 0.0 1007115
21:00+23всв229125 0.1 100963
28 февраля, вс
вс2800:00+22всв119391 0.0 101023
03:00+23в118795 0.0 100823
06:00+21св119393 0.1 100923
09:00+26ссв247891 0.6 1010503
12:00+29с347150 1.8 10091004
15:00+29ссз336765 4.1 10061086
18:00+27с228069 1.1 100579
21:00+23юв249684 10.9 1008160
1 марта, пн
пн100:00+23ссз0198100 10.3 100971
03:00+22ююв1299100 22.1 1007142
06:00+22вюв2598100 11.4 1008262
09:00+22юв2295100 16.2 1010158
12:00+22юз1295100 0.8 1010162
15:00+25ююз1281100 0.8 1006568
18:00+25юз1387100 0.0 1006151
21:00+23юз129299 0.0 100861
2 марта, вт
вт200:00+23ссв009299 1.0 100923
03:00+22с129899 4.6 100866
06:00+22с139999 5.1 1009128
09:00+23с259398 7.7 1011373
12:00+27с347894 1.1 1011740
15:00+28ссз237997 5.4 1007751
18:00+24з1293100 9.6 100731
21:00+23сз1194100 14.4 101024